When you browse on this site, cookies collect data to enhance your experience and personalize the content and advertising you see.
Visit our Privacy Policy to learn more. By continuing to use the site, you agree to this use of cookies and data.
  • In Spain
  • List of Countries
  • For 7 days
  • Water Temperature
  • Satellite Maps
  • Weather Map
  • Weather Widgets
  • user-avatar
    Login

    Hourly Weather Encamp

    Today, 15 December, Saturday

    Time Temperature Precipitation Wind Pressure Humidity
    00:00 -3°C° 0 mm 2 mps 623 mmHg 84%
    01:00 -4°C° 0 mm 2 mps 623 mmHg 82%
    02:00 -4°C° 0 mm 2 mps 623 mmHg 81%
    03:00 -4°C° 0 mm 2 mps 623 mmHg 79%
    04:00 -4°C° 0 mm 2 mps 623 mmHg 75%
    05:00 -4°C° 0 mm 2 mps 623 mmHg 72%
    06:00 -4°C° 0 mm 2 mps 623 mmHg 69%
    07:00 -2°C° 0 mm 2 mps 624 mmHg 67%
    08:00 +1°C° 0 mm 1 mps 624 mmHg 65%
    09:00 +3°C° 0 mm 1 mps 625 mmHg 63%
    10:00 +4°C° 0 mm 1 mps 625 mmHg 62%
    11:00 +6°C° 0 mm 1 mps 626 mmHg 61%
    12:00 +8°C° 0 mm 1 mps 626 mmHg 61%
    13:00 +7°C° 0.1 mm 1 mps 626 mmHg 66%
    14:00 +6°C° 0.1 mm 1 mps 625 mmHg 71%
    15:00 +6°C° 0.1 mm 1 mps 625 mmHg 76%
    16:00 +5°C° 0.3 mm 1 mps 625 mmHg 79%
    17:00 +5°C° 0.3 mm 1 mps 624 mmHg 82%
    18:00 +4°C° 0.3 mm 1 mps 624 mmHg 85%
    19:00 +4°C° 0.1 mm 1 mps 624 mmHg 86%
    20:00 +4°C° 0.1 mm 1 mps 624 mmHg 86%
    21:00 +4°C° 0.1 mm 1 mps 624 mmHg 86%
    22:00 +4°C° 0.1 mm 1 mps 624 mmHg 87%
    23:00 +4°C° 0.1 mm 1 mps 624 mmHg 87%

    Tomorrow, 16 December, Sunday

    Time Temperature Precipitation Wind Pressure Humidity
    00:00 +4°C° 0.1 mm 1 mps 624 mmHg 88%
    01:00 +4°C° 0.1 mm 1 mps 623 mmHg 89%
    02:00 +3°C° 0.1 mm 1 mps 623 mmHg 90%
    03:00 +3°C° 0.1 mm 1 mps 623 mmHg 91%
    04:00 +3°C° 0.2 mm 1 mps 623 mmHg 91%
    05:00 +3°C° 0.2 mm 1 mps 622 mmHg 92%
    06:00 +3°C° 0.2 mm 1 mps 622 mmHg 93%
    07:00 +3°C° 0.4 mm 1 mps 622 mmHg 92%
    08:00 +3°C° 0.4 mm 1 mps 623 mmHg 92%
    09:00 +4°C° 0.4 mm 1 mps 623 mmHg 91%
    10:00 +4°C° 0.8 mm 1 mps 623 mmHg 91%
    11:00 +3°C° 0.8 mm 2 mps 622 mmHg 90%
    12:00 +3°C° 0.8 mm 2 mps 622 mmHg 90%
    13:00 +3°C° 0.3 mm 2 mps 622 mmHg 89%
    14:00 +2°C° 0.3 mm 3 mps 621 mmHg 87%
    15:00 +2°C° 0.3 mm 3 mps 621 mmHg 86%
    16:00 +2°C° 0.1 mm 2 mps 621 mmHg 89%
    17:00 +1°C° 0.1 mm 2 mps 621 mmHg 91%
    18:00 +1°C° 0.1 mm 1 mps 621 mmHg 93%
    19:00 -2°C° 0.1 mm 2 mps 621 mmHg 92%
    20:00 -2°C° 0.1 mm 2 mps 621 mmHg 91%
    21:00 -2°C° 0.1 mm 2 mps 622 mmHg 90%
    22:00 -2°C° 0.1 mm 2 mps 622 mmHg 90%
    23:00 -2°C° 0.1 mm 2 mps 623 mmHg 89%

    Day after tomorrow, 17 December, Monday

    Time Temperature Precipitation Wind Pressure Humidity
    00:00 -2°C° 0.1 mm 3 mps 623 mmHg 89%
    01:00 -2°C° 0 mm 3 mps 623 mmHg 87%
    02:00 -4°C° 0 mm 3 mps 623 mmHg 85%
    03:00 -5°C° 0 mm 3 mps 623 mmHg 84%
    04:00 -5°C° 0 mm 3 mps 624 mmHg 83%
    05:00 -5°C° 0 mm 3 mps 624 mmHg 82%
    06:00 -5°C° 0 mm 3 mps 624 mmHg 81%
    07:00 -4°C° 0 mm 3 mps 625 mmHg 78%
    08:00 -4°C° 0 mm 3 mps 626 mmHg 76%
    09:00 -2°C° 0 mm 3 mps 627 mmHg 73%
    10:00 -1°C° 0 mm 3 mps 627 mmHg 69%
    11:00 0°C° 0 mm 3 mps 628 mmHg 64%
    12:00 +1°C° 0 mm 3 mps 628 mmHg 60%
    13:00 +2°C° 0 mm 2 mps 628 mmHg 61%
    14:00 +2°C° 0 mm 2 mps 628 mmHg 62%
    15:00 +2°C° 0 mm 2 mps 628 mmHg 63%
    16:00 -1°C° 0 mm 2 mps 628 mmHg 67%
    17:00 0°C° 0 mm 1 mps 628 mmHg 71%
    18:00 -2°C° 0 mm 1 mps 627 mmHg 75%
    19:00 -2°C° 0 mm 1 mps 627 mmHg 73%
    20:00 -2°C° 0 mm 1 mps 627 mmHg 70%
    21:00 -2°C° 0 mm 1 mps 628 mmHg 67%
    22:00 -2°C° 0 mm 1 mps 627 mmHg 68%
    23:00 -2°C° 0 mm 1 mps 627 mmHg 68%

    18 December, Tuesday

    Time Temperature Precipitation Wind Pressure Humidity
    00:00 -1°C° 0 mm 1 mps 627 mmHg 68%
    01:00 -1°C° 0 mm 1 mps 626 mmHg 67%
    02:00 -3°C° 0 mm 2 mps 626 mmHg 65%
    03:00 -3°C° 0 mm 2 mps 626 mmHg 63%
    04:00 -3°C° 0 mm 2 mps 626 mmHg 62%
    05:00 -3°C° 0 mm 2 mps 625 mmHg 60%
    06:00 -4°C° 0 mm 2 mps 625 mmHg 58%
    07:00 -2°C° 0 mm 2 mps 625 mmHg 55%
    08:00 -1°C° 0 mm 2 mps 625 mmHg 52%
    09:00 +1°C° 0 mm 2 mps 626 mmHg 49%
    10:00 +1°C° 0 mm 3 mps 626 mmHg 47%
    11:00 +3°C° 0 mm 3 mps 626 mmHg 44%
    12:00 +4°C° 0 mm 3 mps 626 mmHg 42%
    13:00 +4°C° 0 mm 3 mps 626 mmHg 45%
    14:00 +4°C° 0 mm 2 mps 626 mmHg 49%
    15:00 +4°C° 0 mm 2 mps 625 mmHg 52%
    16:00 +3°C° 0.1 mm 2 mps 625 mmHg 55%
    17:00 +2°C° 0.1 mm 2 mps 625 mmHg 57%
    18:00 +2°C° 0.1 mm 1 mps 624 mmHg 60%
    19:00 +2°C° 0 mm 1 mps 624 mmHg 61%
    20:00 +1°C° 0 mm 2 mps 624 mmHg 63%
    21:00 -1°C° 0 mm 2 mps 624 mmHg 64%
    22:00 -1°C° 0 mm 2 mps 624 mmHg 65%
    23:00 -1°C° 0 mm 2 mps 624 mmHg 66%

    19 December, Wednesday

    Time Temperature Precipitation Wind Pressure Humidity
    00:00 +1°C° 0 mm 1 mps 624 mmHg 67%
    01:00 +1°C° 0 mm 1 mps 623 mmHg 70%
    02:00 +1°C° 0 mm 1 mps 623 mmHg 73%
    03:00 +1°C° 0 mm 1 mps 623 mmHg 76%
    04:00 0°C° 0 mm 1 mps 623 mmHg 79%
    05:00 0°C° 0 mm 1 mps 623 mmHg 82%
    06:00 0°C° 0 mm 1 mps 623 mmHg 85%
    07:00 0°C° 0 mm 1 mps 624 mmHg 83%
    08:00 +1°C° 0 mm 1 mps 624 mmHg 81%
    09:00 +2°C° 0 mm 1 mps 625 mmHg 79%
    10:00 +3°C° 0 mm 1 mps 625 mmHg 76%
    11:00 +3°C° 0 mm 1 mps 625 mmHg 73%
    12:00 +4°C° 0 mm 1 mps 625 mmHg 70%
    13:00 +4°C° 0 mm 1 mps 625 mmHg 72%
    14:00 +3°C° 0 mm 1 mps 625 mmHg 73%
    15:00 +3°C° 0 mm 1 mps 624 mmHg 75%
    16:00 +2°C° 0 mm 1 mps 624 mmHg 81%
    17:00 +1°C° 0 mm 1 mps 624 mmHg 86%
    18:00 -1°C° 0 mm 1 mps 624 mmHg 92%
    19:00 -1°C° 0 mm 1 mps 624 mmHg 91%
    20:00 -1°C° 0 mm 1 mps 624 mmHg 89%
    21:00 -1°C° 0 mm 1 mps 624 mmHg 88%
    22:00 -1°C° 0 mm 1 mps 624 mmHg 88%
    23:00 -2°C° 0 mm 1 mps 623 mmHg 87%

    20 December, Thursday

    Time Temperature Precipitation Wind Pressure Humidity
    00:00 -2°C° 0 mm 1 mps 623 mmHg 86%
    01:00 -2°C° 0 mm 1 mps 623 mmHg 85%
    02:00 -2°C° 0 mm 1 mps 623 mmHg 85%
    03:00 -3°C° 0 mm 1 mps 623 mmHg 84%
    04:00 -2°C° 0 mm 1 mps 623 mmHg 82%
    05:00 -2°C° 0 mm 1 mps 623 mmHg 79%
    06:00 -2°C° 0 mm 1 mps 623 mmHg 77%
    07:00 -1°C° 0 mm 1 mps 623 mmHg 72%
    08:00 0°C° 0 mm 1 mps 624 mmHg 68%
    09:00 0°C° 0 mm 0 mps 624 mmHg 64%
    10:00 +2°C° 0 mm 1 mps 625 mmHg 60%
    11:00 +3°C° 0 mm 1 mps 625 mmHg 57%
    12:00 +4°C° 0 mm 1 mps 625 mmHg 53%
    13:00 +4°C° 0 mm 1 mps 624 mmHg 55%
    14:00 +4°C° 0 mm 1 mps 624 mmHg 58%
    15:00 +4°C° 0 mm 1 mps 624 mmHg 60%
    16:00 +2°C° 0 mm 1 mps 623 mmHg 66%
    17:00 0°C° 0 mm 1 mps 623 mmHg 72%
    18:00 -1°C° 0 mm 1 mps 622 mmHg 78%
    19:00 -2°C° 0 mm 1 mps 623 mmHg 77%
    20:00 -2°C° 0 mm 1 mps 623 mmHg 76%
    21:00 -2°C° 0 mm 1 mps 623 mmHg 75%
    22:00 -2°C° 0 mm 1 mps 623 mmHg 73%
    23:00 -1°C° 0 mm 1 mps 623 mmHg 72%
    Show more